Skip Page Navigation
NASA JPL Caltech
NASA Logo - Jet Propulsion Laboratory + View the NASA Portal
+ Near-Earth Object (NEO) Program
Search JPL
JPL Home Earth Solar System Stars & Galaxies Technology
JPL Solar System Dynamics
BODIES ORBITS EPHEMERIDES TOOLS PHYSICAL DATA DISCOVERY FAQ SITE MAP
JPL Small-Body Database Browser
Search: [ help ]  
135268 Haignere (2001 SX115)
Classification: Main-belt Asteroid          SPK-ID: 2135268
Ephemeris | Orbit Diagram | Orbital Elements | Physical Parameters | Discovery Circumstances ]

[ show orbit diagram ]
Orbital Elements at Epoch 2456400.5 (2013-Apr-18.0) TDB
Reference: MPO257624 (heliocentric ecliptic J2000)
 Element Value Uncertainty (1-sigma)   Units 
e 0.2983796 n/a  
a 3.0852992 n/a AU
q 2.1647089 n/a AU
i 1.58407 n/a deg
node 15.41130 n/a deg
peri 25.27648 n/a deg
M 35.28695 n/a deg
tp 2456206.4757700
(2012-Oct-05.97577000)
n/a JED
period 1979.4491391
5.42
n/a
n/a
d
yr
n 0.18186878 n/a deg/d
Q 4.0058895 n/a AU
  Orbit Determination Parameters
   # obs. used (total)      456  
   first obs. used      1997-??-??  
   last obs. used      2013-03-02  
   # oppositions      9  
   planetary ephem.      DE403  
   condition code      0  
   fit RMS      0.49  
   data source      MPC:mpu  
   producer      MPCLINUX  

Additional Information
 T_jup = 3.156 

Ephemeris | Orbit Diagram | Orbital Elements | Physical Parameters | Discovery Circumstances ]

Physical Parameter Table
Parameter Symbol Value Units Sigma Reference Notes
absolute magnitude H 14.9 mag n/a MPC43424  

135268 Haigneré           Discovered 2001 Sept. 20 by J.-C. Merlin at Le Creusot.
Claudie (b. 1957) and Jean-Pierre Haigneré (b. 1948) are both members of the European Space Agency corps of astronauts. Claudie flew aboard the MIR station in 1996 and the ISS in 2001. Jean-Pierre flew aboard MIR in 1993 and 1999. Claudie was born in Le Creusot, where this minor planet was discovered.
NOTE: some special characters may not display properly (any characters within {} are an attempt to place the proper accent above a character)
Reference: 20061109/MPCPages.arcLast Updated: 2006-11-13
Ephemeris | Orbit Diagram | Orbital Elements | Physical Parameters | Discovery Circumstances ]
ABOUT SSD CREDITS/AWARDS PRIVACY/COPYRIGHT GLOSSARY LINKS
FirstGov 2013-May-19 03:51 UT
(server date/time)  
NASA Home Page
Site Manager:   Donald K. Yeomans
Webmaster  Alan B. Chamberlin